Regional Weather Roundup
Issued by NWS Newport/Morehead, NC

Home | Current Version | Previous Version | Text Only | Print | Product List | Glossary On
Versions: 1 2 3 4 5 6 7 8 9 10 11 12 13 14 15 16 17 18 19 20 21 22 23 24 25 26 27 28 29 30 31 32 33 34 35 36 37 38 39 40 41 42 43 44 45 46 47 48 49 50
502
ASUS42 KMHX 261525
RWRMHX
WEATHER ROUNDUP FOR EASTERN NORTH CAROLINA
NATIONAL WEATHER SERVICE NEWPORT/MOREHEAD CITY NC
1100 AM EDT TUE JUL 26 2016

NOTE: "FAIR" INDICATES FEW OR NO CLOUDS BELOW 12,000 FEET
WITH NO SIGNIFICANT WEATHER AND/OR OBSTRUCTIONS TO VISIBILITY

NCZ015>017-031-032-045>047-102-103-261600-
NORTH COAST

CITY           SKY/WX    TMP DP  RH WIND       PRES   REMARKS
EDENTON        MOSUNNY   89  73  59 W7        29.99S
ELIZABETH CITY SUNNY     88  76  67 W9        29.97S
KITTY HAWK     SUNNY     90  74  58 W8        29.96F
MANTEO           N/A     87  77  72 W8        29.98S

$$

NCZ045>047-081-094-103-104-261600-
CENTRAL COAST

CITY           SKY/WX    TMP DP  RH WIND       PRES   REMARKS
FRISCO         SUNNY     83  75  77 SW12G20   30.01S

$$

NCZ095-097-098-100-101-261600-
SOUTHERN COAST

CITY           SKY/WX    TMP DP  RH WIND       PRES   REMARKS
BEAUFORT       SUNNY     85  75  72 SW15      30.04R
CEDAR ISLAND   NOT AVBL
JACKSONVILLE   SUNNY     87  73  62 VRB6      30.03S
PINEY ISLAND   NOT AVBL
WILMINGTON     MOSUNNY   87  73  62 W10       30.05S


$$

NCZ011>013-027>030-043-044-078>080-089-090>093-098-261600-
COASTAL PLAIN

CITY           SKY/WX    TMP DP  RH WIND       PRES   REMARKS
AHOSKIE        SUNNY     86  77  74 CALM      29.98S
CLINTON        MOSUNNY   87  75  68 SW6       30.03S
ELIZABETHTOWN  SUNNY     87  74  66 SW7       30.04S
GOLDSBORO      NOT AVBL
GREENVILLE     SUNNY     88  77  70 SW8       30.02S HX 100
HAVELOCK       MOSUNNY   88  73  61 W12       30.04R
KENANSVILLE    NOT AVBL
KINSTON        SUNNY     90  73  58 SW9       30.02S
NEW BERN       MOSUNNY   87  75  67 SW10      30.03S
RICHLANDS      SUNNY     89  75  63 SW9       30.04S
ROCKY MOUNT    SUNNY     88  76  67 SW6       30.00S
WASHINGTON     SUNNY     87  76  69 SW12      30.00S
WHITEVILLE     PTSUNNY   87  74  64 SW8       30.04F

$$

AMZ130-135-150-152-154-156-158-170-250-252-270-ANZ085-086-088-633-658-670-261600-
MARINE OBSERVATIONS

STATION/POSITION TIME  TEMP    WIND        PRES    WAVE   SWELL
                       AIR SEA DIR/SP/G            HT/PER HT/PER
                 (UTC) (F)     (DEG/KT/KT) (MB)    (FT/S) (FT/S)
CHESAPEAKE LIGHT NOT AVBL
64 E VA BEACH    1450   81 81  250/ 14/ 16 1014.2    4/ 6   2/ 8
DUCK             1500   84 60  240/ 12/ 15 1014.1
2 E DUCK         1411      64                N/A     1/ 8
OREGON INLET     1500   85 84  230/  9/ 12 1015.1
13E OREGON INLT  1500      82                N/A     3/ 6   2/ 6
HATTERAS CG      1500   85 82  230/ 11/ 14 1016.1
DIAMOND BUOY     1450   83 84  240/ 17/ 21 1016.3    5/ 6   2/13
CAPE LOOKOUT     1500   85     250/ 17/ 20 1016.9
BEAUFORT LAB     1500   85 82  240/  6/ 12 1016.5
30 SE NEW RVR IN 1508   84 85  250/ 16/ 19 1017.7
30 SE NEW RVR IN 1425      85                N/A     3/ 5
27 SE WRIGHTSVLE 1508   84 84  250/ 16/ 19 1018.1
5 SE WRIGHTSVLE  1508   83 81  230/  8/ 10 1018.5
225 S CAPE HAT   1450   84 84  250/ 10/ 12 1019.0    2/ 4   2/ 8
41 SE CHARLESTON 1450   85 86  260/ 12/ 16 1018.1    2/ 4   2/ 8

$$




USA.gov is the U.S. government's official web portal to all federal, state and local government web resources and services.